Location: Feigenhofen
(48.4939°N, 10.7793°E)
Time: 05:28:45
(UTC+00:00)

Lacrosse 5 - Pass Details

Date: 26 May 2022
Orbit: 714 x 724 km, 57.0° (Epoch: 09 March)

Event Time Altitude Azimuth Distance (km) Brightness Sun altitude
Exits shadow 00:58:31 28° 189° (S) 1,350 2.7 -16.6°
Maximum altitude 01:00:48 46° 134° (SE) 974 2.4 -16.4°
Drops below altitude 10° 01:05:39 10° 62° (ENE) 2,217 5.2 -16.1°
Sets 01:08:07 0° 56° (ENE) 3,140 6.3 -15.9°
